Tracking 27380 objects as of 6-Jun-2023
HD Live streaming from Space Station
objects crossing your sky now

CZ-4 DEB

Track CZ-4 DEB now!
10-day predictions


NORAD ID: 20895
Int'l Code: 1990-081BF
Perigee: 727.2 km
Apogee: 765.0 km
Inclination: 98.4 °
Period: 99.6 minutes
Semi major axis: 7117 km
RCS: 0.0195 m2 (small)
Launch date: September 3, 1990
Source: People's Republic of China (PRC)
Launch site: Taiyaun Space Center, China (TSC)

Note: This is SATELLITE DEBRIS
Your satellite tracking list
Your tracking list is empty




NASA's NSSDC Master Catalog

Two Line Element Set (TLE):
1 20895U 90081BF  23156.04410071  .00002193  00000-0  62611-3 0  9990
2 20895  98.4081 192.4295 0026609 331.0601  57.2630 14.45935572703968
Source of the keplerian elements: AFSPC